SL-24 R/B, 40303

Orbit data source: Space-Track

SL-24 R/B, 40303 is space debris in SSO originally from a launch on Thu, 06 Nov 2014 UTC launched from the Orenburg, Russia (OREN). Debris objects in space refer to the collection of defunct objects orbiting the Earth. Examples of debris include non-operational satellites, rocket bodies, and fragments generated from explosions, collisions, or faulty payload assembly.

Loading next visibility...
Identifier
40303, 2014-070F
Orbit
SSO
Country
Flag of CISCIS
Related business
Manufacturer
Yuzhnoe
Mission
Spacecraft
Bus & Motor
15A18-BR, Unknown motor
Mass
~1,000 kg wet, ~1,000 kg dry
Launch date (UTC)
2014-11-06 (12 years ago)
Launch vehicle
Unknown
Launch site
Orenburg, Russia (OREN)
Object type
Payload
Rocket body
Debris
Shape & HBR
Cyl, 1.5 m
Radar Cross Section
10.603 m², Large (>1 m²)

Expand to show TLE details & history
Last TLE update: 2 days ago

TLE from 2 days ago
0 SL-24 R/B
1 40303U 14070F   26171.42704617  .00000153  00000-0  42170-4 0  9997
2 40303  97.1675  66.9513 0947538 176.8604 183.9084 13.15305597557059
Epoch: 2026-06-20T10:14Z
TLE epoch observation values (Epoch: 2026-06-20T10:14:56.789Z)
Latitude
-0.00005°
Longitude
4.57286°
Altitude
1,922.605 km
Speed
6.595 km/s
True Right ascension
04h 27m 48s
True Declination
0° 00' 00"
Sunlit
Object was in daylight at epoch
Visualization orbit readout
Latitude
Unknown
Longitude
Unknown
Altitude
Unknown
Speed
Unknown
Apparent Right ascension
Unknown
Apparent Declination
Unknown
Sunlit
N/A
Visualization observer readout
Local Sidereal Time
21:39:47
Azimuth
Unknown
Elevation
Unknown
Doppler factor
Unknown
Orbital elements
Apogee altitude
1,917.951 km
Perigee altitude
481.855 km
Semi-major axis
7,578.04 km
Eccentricity
0.09475
Inclination
97.1675°
RAAN
66.9513°
Arg. of periapsis
176.8604°
True anomaly
183.24681°
Mean anomaly
183.9084°
Eccentric anomaly
183.57032°
Mean motion
3.29009 °/min
Orbital period
109.42 mins
BSTAR
0.00004217
Loading maneuver chart data...
Computing Atmospheric mass density...
Loading historical data...
Loading historical data...
Loading historical data...
Loading historical data...
Loading historical data...
Loading historical data...
Loading historical data...

Documentation

Showing up to 5 results
|